EFW39YP EGKK-LGKL

Flight info

Callsign EFW39YP
Flight time 3h 13m
Altitude 37000
Route ODVIK Y311 DVR UL9 KONAN DCT KOK UL607 REMBA DCT ARCKY DCT LIRSU DCT KRH DCT BATUB DCT TIRUL M738 NATAG DCT LORLO DCT BORMI DCT AKADO DCT LABIN DCT ELGUS DCT AIOSA DCT OKIMO DCT NOSTO UN7 ROTSA/N0392F310 UM127 ARA UL612 TRL
Aircraft A320/M-SDE3FGHIJ1KRWXY/LB1

Departure

Time 2026-05-06 16:06
Airport London Gatwick Airport (EGKK)

Arrival

Time 2026-05-06 19:20
Airport Kalamata Airport (LGKL)
Time Latitude Longitude Altitude Speed Heading
2026-05-06 15:23 51.15628 -0.16603 204 ft 0 kts 167°
2026-05-06 15:50 51.15634 -0.16605 213 ft 4 kts 167°
2026-05-06 15:50 51.15660 -0.16614 204 ft 4 kts 167°
2026-05-06 15:50 51.15682 -0.16622 214 ft 3 kts 169°
2026-05-06 15:51 51.15700 -0.16618 204 ft 4 kts 246°
2026-05-06 15:51 51.15706 -0.16580 215 ft 3 kts 257°
2026-05-06 15:51 51.15707 -0.16576 204 ft 0 kts 257°
2026-05-06 15:55 51.15707 -0.16577 204 ft 1 kts 257°
2026-05-06 15:55 51.15704 -0.16599 204 ft 5 kts 257°
2026-05-06 15:55 51.15691 -0.16688 209 ft 10 kts 257°
2026-05-06 15:56 51.15675 -0.16807 214 ft 12 kts 258°
2026-05-06 15:56 51.15656 -0.16947 204 ft 14 kts 257°
2026-05-06 15:56 51.15633 -0.17108 215 ft 16 kts 257°
2026-05-06 15:56 51.15606 -0.17287 208 ft 18 kts 256°
2026-05-06 15:57 51.15574 -0.17428 210 ft 12 kts 225°
2026-05-06 15:57 51.15534 -0.17543 213 ft 13 kts 257°
2026-05-06 15:57 51.15513 -0.17696 206 ft 15 kts 257°
2026-05-06 15:57 51.15489 -0.17868 212 ft 17 kts 257°
2026-05-06 15:58 51.15462 -0.18063 209 ft 19 kts 257°
2026-05-06 15:58 51.15439 -0.18234 204 ft 10 kts 258°
2026-05-06 15:58 51.15384 -0.18275 207 ft 11 kts 167°
2026-05-06 15:58 51.15304 -0.18247 207 ft 13 kts 168°
2026-05-06 15:59 51.15216 -0.18221 213 ft 12 kts 185°
2026-05-06 15:59 51.15184 -0.18337 207 ft 13 kts 263°
2026-05-06 15:59 51.15163 -0.18493 213 ft 15 kts 257°
2026-05-06 15:59 51.15139 -0.18670 208 ft 18 kts 257°
2026-05-06 16:00 51.15111 -0.18871 212 ft 20 kts 257°
2026-05-06 16:00 51.15081 -0.19092 207 ft 21 kts 258°
2026-05-06 16:00 51.15047 -0.19335 204 ft 23 kts 258°
2026-05-06 16:00 51.15011 -0.19598 209 ft 25 kts 257°
2026-05-06 16:01 51.14971 -0.19886 213 ft 28 kts 258°
2026-05-06 16:01 51.14928 -0.20200 210 ft 30 kts 257°
2026-05-06 16:01 51.14881 -0.20535 208 ft 32 kts 257°
2026-05-06 16:01 51.14837 -0.20861 204 ft 21 kts 257°
2026-05-06 16:02 51.14815 -0.21018 204 ft 14 kts 257°
2026-05-06 16:02 51.14793 -0.21147 211 ft 11 kts 245°
2026-05-06 16:02 51.14771 -0.21272 207 ft 13 kts 257°
2026-05-06 16:02 51.14759 -0.21357 209 ft 7 kts 257°
2026-05-06 16:03 51.14729 -0.21405 208 ft 3 kts 194°
2026-05-06 16:03 51.14726 -0.21405 204 ft 0 kts 189°
2026-05-06 16:04 51.14716 -0.21406 204 ft 3 kts 179°
2026-05-06 16:04 51.14688 -0.21394 213 ft 5 kts 160°
2026-05-06 16:04 51.14655 -0.21349 214 ft 7 kts 138°
2026-05-06 16:05 51.14600 -0.21320 214 ft 10 kts 167°
2026-05-06 16:05 51.14536 -0.21260 202 ft 13 kts 129°
2026-05-06 16:05 51.14527 -0.21114 207 ft 15 kts 79°
2026-05-06 16:05 51.14578 -0.20746 205 ft 65 kts 78°
2026-05-06 16:06 51.14721 -0.19712 205 ft 123 kts 77°
2026-05-06 16:06 51.14934 -0.18154 303 ft 155 kts 76°
2026-05-06 16:06 51.15124 -0.16548 1042 ft 146 kts 74°
2026-05-06 16:06 51.15347 -0.14930 1524 ft 158 kts 72°
2026-05-06 16:07 51.15618 -0.13098 1856 ft 180 kts 73°
2026-05-06 16:07 51.15922 -0.11030 2137 ft 204 kts 74°
2026-05-06 16:07 51.16253 -0.08690 2516 ft 228 kts 75°
2026-05-06 16:07 51.16612 -0.06094 3030 ft 250 kts 75°
2026-05-06 16:08 51.16910 -0.03324 3848 ft 260 kts 86°
2026-05-06 16:08 51.16883 -0.00421 4795 ft 264 kts 89°
2026-05-06 16:08 51.16827 0.02523 5673 ft 269 kts 89°
2026-05-06 16:08 51.16763 0.05523 6583 ft 272 kts 90°
2026-05-06 16:09 51.16695 0.08555 7434 ft 276 kts 90°
2026-05-06 16:09 51.16632 0.11633 8241 ft 281 kts 89°
2026-05-06 16:09 51.16568 0.14771 9034 ft 286 kts 90°
2026-05-06 16:09 51.16525 0.17964 9829 ft 290 kts 88°
2026-05-06 16:10 51.16522 0.21200 10538 ft 295 kts 87°
2026-05-06 16:10 51.16537 0.24495 11240 ft 299 kts 87°
2026-05-06 16:10 51.16556 0.27834 11958 ft 303 kts 88°
2026-05-06 16:10 51.16573 0.31217 12687 ft 307 kts 88°
2026-05-06 16:11 51.16585 0.34645 13387 ft 312 kts 88°
2026-05-06 16:11 51.16594 0.38144 13847 ft 326 kts 89°
2026-05-06 16:11 51.16599 0.41880 14025 ft 346 kts 89°
2026-05-06 16:11 51.16602 0.45761 14511 ft 354 kts 89°
2026-05-06 16:12 51.16603 0.49705 15096 ft 358 kts 89°
2026-05-06 16:12 51.16601 0.53691 15727 ft 361 kts 89°
2026-05-06 16:12 51.16596 0.57707 16327 ft 364 kts 89°
2026-05-06 16:12 51.16589 0.61763 16915 ft 369 kts 89°
2026-05-06 16:13 51.16581 0.65858 17200 ft 369 kts 90°
2026-05-06 16:13 51.16575 0.69957 17460 ft 371 kts 90°
2026-05-06 16:13 51.16566 0.74074 17727 ft 372 kts 90°
2026-05-06 16:13 51.16553 0.78207 17934 ft 374 kts 90°
2026-05-06 16:14 51.16539 0.82354 17983 ft 375 kts 90°
2026-05-06 16:14 51.16526 0.86518 17972 ft 376 kts 90°
2026-05-06 16:14 51.16512 0.90665 17969 ft 374 kts 90°
2026-05-06 16:14 51.16500 0.94810 17985 ft 375 kts 90°
2026-05-06 16:15 51.16486 0.98939 18496 ft 378 kts 90°
2026-05-06 16:15 51.16470 1.03196 19084 ft 381 kts 90°
2026-05-06 16:15 51.16451 1.07424 19625 ft 384 kts 90°
2026-05-06 16:15 51.16429 1.11701 20178 ft 386 kts 91°
2026-05-06 16:16 51.16404 1.15995 20706 ft 389 kts 90°
2026-05-06 16:16 51.16378 1.20322 21214 ft 393 kts 91°
2026-05-06 16:16 51.16351 1.24678 21716 ft 396 kts 91°
2026-05-06 16:16 51.16320 1.29083 22236 ft 399 kts 91°
2026-05-06 16:17 51.16286 1.33449 22742 ft 402 kts 91°
2026-05-06 16:17 51.16227 1.37917 23285 ft 405 kts 92°
2026-05-06 16:17 51.16075 1.42423 23753 ft 408 kts 94°
2026-05-06 16:17 51.15856 1.46948 24180 ft 411 kts 96°
2026-05-06 16:18 51.15602 1.51500 24613 ft 413 kts 96°
2026-05-06 16:18 51.15339 1.56072 25029 ft 416 kts 96°
2026-05-06 16:18 51.15082 1.60669 25458 ft 418 kts 96°
2026-05-06 16:18 51.14838 1.65292 25885 ft 420 kts 95°
2026-05-06 16:19 51.14603 1.69941 26310 ft 422 kts 95°
2026-05-06 16:19 51.14370 1.74611 26717 ft 424 kts 95°
2026-05-06 16:19 51.14138 1.79297 27132 ft 427 kts 95°
2026-05-06 16:19 51.13901 1.84025 27534 ft 428 kts 95°
2026-05-06 16:20 51.13660 1.88763 27941 ft 430 kts 96°
2026-05-06 16:20 51.13412 1.93533 28324 ft 433 kts 95°
2026-05-06 16:20 51.13160 1.98321 28657 ft 436 kts 96°
2026-05-06 16:20 51.12908 2.03134 29063 ft 437 kts 95°
2026-05-06 16:21 51.12655 2.07965 29444 ft 439 kts 96°
2026-05-06 16:21 51.12398 2.12821 29790 ft 442 kts 96°
2026-05-06 16:21 51.12139 2.17701 30165 ft 443 kts 96°
2026-05-06 16:21 51.11875 2.22610 30455 ft 446 kts 96°
2026-05-06 16:22 51.11606 2.27537 30734 ft 448 kts 96°
2026-05-06 16:22 51.11332 2.32486 31062 ft 450 kts 96°
2026-05-06 16:22 51.11055 2.37465 31378 ft 452 kts 96°
2026-05-06 16:22 51.10778 2.42434 31848 ft 450 kts 96°
2026-05-06 16:23 51.10497 2.47385 32318 ft 448 kts 96°
2026-05-06 16:23 51.10212 2.52319 32732 ft 448 kts 96°
2026-05-06 16:23 51.09927 2.57244 33203 ft 446 kts 96°
2026-05-06 16:23 51.09641 2.62153 33622 ft 446 kts 97°
2026-05-06 16:24 51.09125 2.67004 33995 ft 445 kts 105°
2026-05-06 16:24 51.08283 2.71725 34357 ft 443 kts 107°
2026-05-06 16:24 51.07429 2.76438 34657 ft 444 kts 107°
2026-05-06 16:24 51.06586 2.81106 34914 ft 445 kts 107°
2026-05-06 16:25 51.05734 2.85831 35224 ft 444 kts 107°
2026-05-06 16:25 51.04867 2.90614 35522 ft 445 kts 107°
2026-05-06 16:25 51.04007 2.95337 35772 ft 445 kts 107°
2026-05-06 16:25 51.03140 3.00059 36037 ft 445 kts 107°
2026-05-06 16:26 51.02269 3.04783 36311 ft 445 kts 108°
2026-05-06 16:26 51.01398 3.09506 36546 ft 446 kts 108°
2026-05-06 16:26 51.00535 3.14171 36782 ft 447 kts 108°
2026-05-06 16:26 50.99658 3.18911 36913 ft 447 kts 108°
2026-05-06 16:27 50.97906 3.28378 36921 ft 447 kts 108°
2026-05-06 16:27 50.96151 3.37816 36923 ft 445 kts 108°
2026-05-06 16:28 50.94385 3.47217 36914 ft 445 kts 108°
2026-05-06 16:28 50.92607 3.56612 36913 ft 444 kts 108°
2026-05-06 16:29 50.90820 3.66003 36910 ft 445 kts 108°
2026-05-06 16:29 50.89021 3.75379 36914 ft 445 kts 108°
2026-05-06 16:30 50.87519 3.83166 36913 ft 445 kts 109°
2026-05-06 16:30 50.85391 3.94099 36913 ft 445 kts 109°
2026-05-06 16:31 50.83571 4.03401 36908 ft 445 kts 109°
2026-05-06 16:31 50.81742 4.12757 36902 ft 445 kts 109°
2026-05-06 16:32 50.79901 4.22098 36901 ft 445 kts 109°
2026-05-06 16:32 50.78047 4.31440 36903 ft 444 kts 109°
2026-05-06 16:33 50.76187 4.40748 36907 ft 444 kts 109°
2026-05-06 16:34 50.73393 4.54715 36910 ft 445 kts 109°
2026-05-06 16:34 50.71532 4.64036 36911 ft 446 kts 109°
2026-05-06 16:34 50.70621 4.68705 36761 ft 445 kts 109°
2026-05-06 16:35 50.69722 4.73355 36884 ft 444 kts 110°
2026-05-06 16:35 50.67930 4.82650 36905 ft 445 kts 110°
2026-05-06 16:36 50.66056 4.91923 36904 ft 442 kts 116°
2026-05-06 16:36 50.63517 5.00698 36911 ft 440 kts 118°
2026-05-06 16:37 50.60958 5.09437 36902 ft 439 kts 118°
2026-05-06 16:37 50.58401 5.18161 36899 ft 439 kts 118°
2026-05-06 16:38 50.55840 5.26874 36900 ft 439 kts 118°
2026-05-06 16:38 50.53273 5.35585 36906 ft 438 kts 118°
2026-05-06 16:39 50.50699 5.44266 36908 ft 438 kts 118°
2026-05-06 16:39 50.48134 5.52878 36911 ft 438 kts 118°
2026-05-06 16:40 50.45551 5.61521 36898 ft 437 kts 119°
2026-05-06 16:40 50.42963 5.70145 36903 ft 437 kts 119°
2026-05-06 16:41 50.40357 5.78816 36896 ft 436 kts 119°
2026-05-06 16:41 50.37780 5.87360 36903 ft 436 kts 119°
2026-05-06 16:42 50.35171 5.95951 36901 ft 438 kts 119°
2026-05-06 16:42 50.32564 6.04554 36887 ft 437 kts 120°
2026-05-06 16:43 50.29950 6.13132 36869 ft 437 kts 120°
2026-05-06 16:43 50.27156 6.21537 36872 ft 435 kts 123°
2026-05-06 16:44 50.24194 6.29759 36861 ft 434 kts 124°
2026-05-06 16:44 50.21239 6.37970 36864 ft 433 kts 123°
2026-05-06 16:45 50.18208 6.46061 36820 ft 428 kts 131°
2026-05-06 16:45 50.14441 6.53189 36834 ft 425 kts 134°
2026-05-06 16:46 50.10630 6.60252 36829 ft 426 kts 134°
2026-05-06 16:46 50.06815 6.67300 36838 ft 426 kts 134°
2026-05-06 16:47 50.02996 6.74328 36839 ft 426 kts 135°
2026-05-06 16:47 49.99164 6.81358 36840 ft 425 kts 134°
2026-05-06 16:48 49.95986 6.87183 36829 ft 425 kts 135°
2026-05-06 16:48 49.92164 6.94162 36842 ft 424 kts 135°
2026-05-06 16:49 49.88342 7.01119 36827 ft 423 kts 135°
2026-05-06 16:49 49.84525 7.08064 36831 ft 423 kts 135°
2026-05-06 16:50 49.80703 7.15000 36826 ft 423 kts 135°
2026-05-06 16:50 49.76873 7.21922 36829 ft 423 kts 135°
2026-05-06 16:51 49.73038 7.28822 36800 ft 423 kts 135°
2026-05-06 16:51 49.69213 7.35722 36820 ft 422 kts 135°
2026-05-06 16:52 49.65390 7.42598 36816 ft 421 kts 135°
2026-05-06 16:52 49.62996 7.46874 36820 ft 421 kts 135°
2026-05-06 16:53 49.59164 7.53721 36819 ft 421 kts 135°
2026-05-06 16:53 49.55331 7.60556 36831 ft 421 kts 135°
2026-05-06 16:54 49.51487 7.67364 36809 ft 420 kts 135°
2026-05-06 16:54 49.47654 7.74157 36803 ft 421 kts 135°
2026-05-06 16:55 49.43819 7.80951 36809 ft 421 kts 135°
2026-05-06 16:55 49.39974 7.87732 36827 ft 421 kts 135°
2026-05-06 16:56 49.36123 7.94508 36820 ft 422 kts 135°
2026-05-06 16:56 49.32289 8.01228 36835 ft 421 kts 135°
2026-05-06 16:57 49.28436 8.07978 36819 ft 421 kts 136°
2026-05-06 16:57 49.24571 8.14727 36828 ft 421 kts 136°
2026-05-06 16:58 49.20705 8.21458 36836 ft 421 kts 136°
2026-05-06 16:58 49.16843 8.28158 36841 ft 420 kts 136°
2026-05-06 16:59 49.12976 8.34852 36838 ft 419 kts 136°
2026-05-06 16:59 49.09120 8.41521 36841 ft 419 kts 136°
2026-05-06 17:00 49.05257 8.48189 36838 ft 419 kts 136°
2026-05-06 17:00 49.01391 8.54843 36846 ft 419 kts 136°
2026-05-06 17:01 48.97100 8.60700 36858 ft 411 kts 150°
2026-05-06 17:01 48.92355 8.65554 36851 ft 410 kts 150°
2026-05-06 17:02 48.87629 8.70400 36850 ft 410 kts 150°
2026-05-06 17:02 48.82898 8.75241 36856 ft 410 kts 150°
2026-05-06 17:03 48.78162 8.80075 36838 ft 410 kts 150°
2026-05-06 17:03 48.73422 8.84898 36841 ft 411 kts 150°
2026-05-06 17:04 48.70116 8.88260 36854 ft 411 kts 150°
2026-05-06 17:04 48.65361 8.93079 36852 ft 412 kts 150°
2026-05-06 17:05 48.60600 8.97896 36863 ft 412 kts 150°
2026-05-06 17:05 48.55844 9.02701 36859 ft 411 kts 150°
2026-05-06 17:06 48.51114 9.07471 36870 ft 411 kts 150°
2026-05-06 17:06 48.46355 9.12258 36846 ft 411 kts 150°
2026-05-06 17:07 48.41591 9.17027 36855 ft 411 kts 150°
2026-05-06 17:07 48.36814 9.21787 36862 ft 412 kts 150°
2026-05-06 17:08 48.32029 9.26562 36869 ft 413 kts 150°
2026-05-06 17:08 48.27242 9.31341 36864 ft 413 kts 150°
2026-05-06 17:09 48.22485 9.36074 36871 ft 413 kts 150°
2026-05-06 17:09 48.17665 9.40846 36880 ft 413 kts 150°
2026-05-06 17:10 48.12876 9.45582 36857 ft 413 kts 150°
2026-05-06 17:10 48.08112 9.50283 36859 ft 413 kts 150°
2026-05-06 17:11 48.03312 9.55008 36868 ft 413 kts 150°
2026-05-06 17:11 47.98495 9.59803 36870 ft 414 kts 149°
2026-05-06 17:12 47.93780 9.64663 36880 ft 414 kts 149°
2026-05-06 17:12 47.89046 9.69541 36883 ft 414 kts 149°
2026-05-06 17:13 47.84296 9.74391 36895 ft 414 kts 149°
2026-05-06 17:13 47.79535 9.79217 36873 ft 414 kts 149°
2026-05-06 17:14 47.74766 9.84038 36879 ft 415 kts 149°
2026-05-06 17:14 47.69998 9.88867 36876 ft 415 kts 149°
2026-05-06 17:15 47.65225 9.93703 36896 ft 416 kts 149°
2026-05-06 17:15 47.60433 9.98537 36886 ft 416 kts 149°
2026-05-06 17:16 47.55634 10.03353 36899 ft 417 kts 149°
2026-05-06 17:16 47.50825 10.08174 36891 ft 417 kts 150°
2026-05-06 17:17 47.46004 10.12987 36899 ft 418 kts 150°
2026-05-06 17:17 47.41209 10.17762 36901 ft 418 kts 150°
2026-05-06 17:18 47.36352 10.22606 36905 ft 419 kts 150°
2026-05-06 17:18 47.31511 10.27412 36899 ft 420 kts 150°
2026-05-06 17:19 47.26687 10.32187 36880 ft 421 kts 150°
2026-05-06 17:19 47.21819 10.36998 36879 ft 421 kts 150°
2026-05-06 17:20 47.16956 10.41804 36872 ft 420 kts 150°
2026-05-06 17:20 47.12102 10.46587 36859 ft 421 kts 150°
2026-05-06 17:21 47.07230 10.51344 36861 ft 420 kts 154°
2026-05-06 17:21 47.01930 10.54607 36860 ft 411 kts 167°
2026-05-06 17:22 46.96455 10.57062 36857 ft 412 kts 167°
2026-05-06 17:22 46.90975 10.59534 36859 ft 412 kts 167°
2026-05-06 17:23 46.85487 10.62011 36864 ft 412 kts 167°
2026-05-06 17:23 46.80039 10.64462 36847 ft 412 kts 167°
2026-05-06 17:24 46.74557 10.66924 36861 ft 413 kts 167°
2026-05-06 17:24 46.69212 10.70184 36882 ft 420 kts 158°
2026-05-06 17:25 46.63974 10.73943 36890 ft 420 kts 159°
2026-05-06 17:25 46.58731 10.77698 36909 ft 420 kts 159°
2026-05-06 17:26 46.53483 10.81448 36918 ft 420 kts 159°
2026-05-06 17:26 46.48226 10.85189 36915 ft 420 kts 159°
2026-05-06 17:26 46.45606 10.87053 37051 ft 419 kts 159°
2026-05-06 17:27 46.42983 10.88916 36922 ft 418 kts 160°
2026-05-06 17:27 46.37800 10.92597 36930 ft 414 kts 160°
2026-05-06 17:28 46.32622 10.96260 36949 ft 415 kts 160°
2026-05-06 17:28 46.27437 10.99917 36958 ft 414 kts 160°
2026-05-06 17:29 46.22253 11.03572 36967 ft 415 kts 160°
2026-05-06 17:29 46.17058 11.07232 36963 ft 416 kts 160°
2026-05-06 17:30 46.11888 11.10868 36956 ft 416 kts 160°
2026-05-06 17:30 46.06675 11.14536 36952 ft 418 kts 158°
2026-05-06 17:31 46.02047 11.19796 36916 ft 434 kts 137°
2026-05-06 17:31 45.98384 11.26788 36907 ft 437 kts 133°
2026-05-06 17:32 45.94757 11.33818 36912 ft 438 kts 134°
2026-05-06 17:32 45.91119 11.40837 36926 ft 439 kts 134°
2026-05-06 17:33 45.87466 11.47851 36932 ft 439 kts 134°
2026-05-06 17:33 45.83815 11.54865 36937 ft 438 kts 134°
2026-05-06 17:34 45.80164 11.61854 36929 ft 438 kts 134°
2026-05-06 17:34 45.76503 11.68843 36929 ft 438 kts 134°
2026-05-06 17:35 45.73457 11.74650 36932 ft 438 kts 134°
2026-05-06 17:35 45.69794 11.81619 36920 ft 438 kts 134°
2026-05-06 17:36 45.64283 11.92060 36923 ft 438 kts 134°
2026-05-06 17:36 45.60601 11.99004 36929 ft 439 kts 134°
2026-05-06 17:37 45.56919 12.05938 36933 ft 438 kts 134°
2026-05-06 17:37 45.53231 12.12870 36933 ft 439 kts 134°
2026-05-06 17:38 45.49533 12.19800 36883 ft 439 kts 135°
2026-05-06 17:38 45.45830 12.26720 36896 ft 440 kts 135°
2026-05-06 17:39 45.42125 12.33644 36905 ft 440 kts 135°
2026-05-06 17:39 45.38415 12.40563 36907 ft 440 kts 135°
2026-05-06 17:40 45.34723 12.47432 36880 ft 440 kts 135°
2026-05-06 17:40 45.30955 12.54268 36862 ft 438 kts 136°
2026-05-06 17:41 45.27050 12.60906 36854 ft 438 kts 137°
2026-05-06 17:41 45.23117 12.67517 36862 ft 439 kts 137°
2026-05-06 17:42 45.19196 12.74177 36875 ft 440 kts 137°
2026-05-06 17:42 45.15271 12.80863 36864 ft 441 kts 137°
2026-05-06 17:43 45.11349 12.87546 36887 ft 442 kts 137°
2026-05-06 17:43 45.07411 12.94233 36905 ft 442 kts 137°
2026-05-06 17:44 45.03468 13.00903 36913 ft 442 kts 137°
2026-05-06 17:44 44.99515 13.07562 36894 ft 442 kts 137°
2026-05-06 17:45 44.95235 13.13668 36881 ft 436 kts 143°
2026-05-06 17:45 44.90843 13.19578 36894 ft 437 kts 143°
2026-05-06 17:46 44.86470 13.25453 36926 ft 437 kts 143°
2026-05-06 17:46 44.82064 13.31349 36930 ft 436 kts 143°
2026-05-06 17:47 44.77636 13.37276 36933 ft 436 kts 143°
2026-05-06 17:47 44.73265 13.43118 36917 ft 437 kts 143°
2026-05-06 17:48 44.68857 13.48990 36933 ft 436 kts 143°
2026-05-06 17:48 44.64438 13.54859 36935 ft 437 kts 143°
2026-05-06 17:49 44.60016 13.60727 36950 ft 438 kts 143°
2026-05-06 17:49 44.55590 13.66592 36939 ft 438 kts 143°
2026-05-06 17:50 44.51149 13.72457 36932 ft 439 kts 143°
2026-05-06 17:50 44.46699 13.78312 36946 ft 439 kts 143°
2026-05-06 17:51 44.42244 13.84158 36952 ft 440 kts 143°
2026-05-06 17:51 44.37774 13.90032 36961 ft 441 kts 143°
2026-05-06 17:52 44.33302 13.95902 36924 ft 441 kts 143°
2026-05-06 17:52 44.28834 14.01755 36938 ft 441 kts 143°
2026-05-06 17:53 44.24379 14.07561 36947 ft 441 kts 144°
2026-05-06 17:53 44.19891 14.13377 36952 ft 441 kts 144°
2026-05-06 17:54 44.15400 14.19205 36959 ft 442 kts 144°
2026-05-06 17:54 44.10905 14.25024 36950 ft 441 kts 144°
2026-05-06 17:55 44.06408 14.30835 36946 ft 442 kts 144°
2026-05-06 17:55 44.01901 14.36652 36956 ft 441 kts 144°
2026-05-06 17:56 43.97402 14.42430 36954 ft 441 kts 144°
2026-05-06 17:56 43.92884 14.48219 36959 ft 442 kts 144°
2026-05-06 17:57 43.90641 14.51102 36820 ft 434 kts 140°
2026-05-06 17:57 43.88446 14.53927 36981 ft 429 kts 141°
2026-05-06 17:57 43.84069 14.59526 37153 ft 432 kts 144°
2026-05-06 17:58 43.81843 14.62358 36953 ft 436 kts 145°
2026-05-06 17:58 43.79599 14.65206 36943 ft 438 kts 144°
2026-05-06 17:58 43.75101 14.70926 36951 ft 439 kts 144°
2026-05-06 17:59 43.70626 14.76618 36948 ft 440 kts 144°
2026-05-06 17:59 43.66086 14.82374 36952 ft 440 kts 144°
2026-05-06 18:00 43.61603 14.88048 36940 ft 440 kts 144°
2026-05-06 18:00 43.57083 14.93756 36927 ft 441 kts 144°
2026-05-06 18:01 43.52599 14.99561 36937 ft 444 kts 141°
2026-05-06 18:01 43.48337 15.05797 36947 ft 448 kts 139°
2026-05-06 18:02 43.44144 15.12163 36960 ft 448 kts 139°
2026-05-06 18:02 43.39910 15.18445 36951 ft 447 kts 140°
2026-05-06 18:03 43.35629 15.24655 36966 ft 447 kts 141°
2026-05-06 18:03 43.31341 15.30835 36958 ft 447 kts 141°
2026-05-06 18:04 43.27057 15.37030 36957 ft 448 kts 140°
2026-05-06 18:04 43.22765 15.43246 36953 ft 449 kts 140°
2026-05-06 18:05 43.18493 15.49395 36957 ft 448 kts 141°
2026-05-06 18:05 43.14195 15.55577 36946 ft 447 kts 141°
2026-05-06 18:06 43.09892 15.61752 36955 ft 448 kts 141°
2026-05-06 18:06 43.05580 15.67914 36949 ft 448 kts 141°
2026-05-06 18:07 43.01260 15.74079 36953 ft 449 kts 141°
2026-05-06 18:07 42.96942 15.80248 36961 ft 449 kts 141°
2026-05-06 18:08 42.92645 15.86386 36964 ft 450 kts 141°
2026-05-06 18:08 42.88307 15.92542 36964 ft 450 kts 141°
2026-05-06 18:09 42.83965 15.98696 36970 ft 450 kts 141°
2026-05-06 18:09 42.79625 16.04827 36954 ft 450 kts 141°
2026-05-06 18:10 42.75278 16.10960 36962 ft 450 kts 141°
2026-05-06 18:10 42.70927 16.17091 36963 ft 450 kts 141°
2026-05-06 18:11 42.66577 16.23205 36953 ft 450 kts 141°
2026-05-06 18:11 42.62226 16.29272 36950 ft 443 kts 141°
2026-05-06 18:12 42.57901 16.35320 36933 ft 450 kts 141°
2026-05-06 18:12 42.53548 16.41419 36945 ft 449 kts 141°
2026-05-06 18:13 42.49183 16.47504 36949 ft 451 kts 141°
2026-05-06 18:13 42.44794 16.53600 36963 ft 452 kts 141°
2026-05-06 18:14 42.40388 16.59702 36962 ft 453 kts 141°
2026-05-06 18:14 42.35982 16.65795 36976 ft 454 kts 141°
2026-05-06 18:15 42.31565 16.71895 36962 ft 454 kts 140°
2026-05-06 18:15 42.27174 16.77955 36973 ft 455 kts 140°
2026-05-06 18:16 42.22740 16.84060 36976 ft 456 kts 141°
2026-05-06 18:16 42.18285 16.90158 36984 ft 456 kts 141°
2026-05-06 18:17 42.13825 16.96246 36989 ft 456 kts 140°
2026-05-06 18:17 42.09372 17.02328 36998 ft 456 kts 140°
2026-05-06 18:18 42.04922 17.08403 36994 ft 456 kts 140°
2026-05-06 18:18 42.00459 17.14487 36995 ft 457 kts 140°
2026-05-06 18:19 41.95987 17.20549 37004 ft 457 kts 140°
2026-05-06 18:19 41.91250 17.26100 36991 ft 447 kts 153°
2026-05-06 18:20 41.85970 17.30435 37008 ft 445 kts 155°
2026-05-06 18:20 41.80679 17.34752 37027 ft 445 kts 155°
2026-05-06 18:21 41.75419 17.39032 37022 ft 445 kts 155°
2026-05-06 18:21 41.70119 17.43340 37006 ft 446 kts 155°
2026-05-06 18:22 41.64779 17.47675 36990 ft 447 kts 154°
2026-05-06 18:22 41.59498 17.51951 37006 ft 447 kts 155°
2026-05-06 18:23 41.54172 17.56250 37012 ft 448 kts 155°
2026-05-06 18:23 41.48837 17.60541 37016 ft 448 kts 155°
2026-05-06 18:24 41.43492 17.64834 37030 ft 448 kts 155°
2026-05-06 18:24 41.39060 17.68399 37029 ft 448 kts 155°
2026-05-06 18:25 41.33729 17.72680 37028 ft 447 kts 155°
2026-05-06 18:25 41.28393 17.76948 37017 ft 448 kts 154°
2026-05-06 18:26 41.23026 17.81217 37019 ft 449 kts 154°
2026-05-06 18:26 41.17662 17.85486 37013 ft 450 kts 154°
2026-05-06 18:27 41.12282 17.89768 37020 ft 451 kts 154°
2026-05-06 18:27 41.06894 17.94051 37028 ft 451 kts 154°
2026-05-06 18:28 41.01508 17.98330 37033 ft 451 kts 154°
2026-05-06 18:28 40.96143 18.02567 37034 ft 452 kts 154°
2026-05-06 18:29 40.90755 18.06884 37045 ft 454 kts 152°
2026-05-06 18:29 40.85465 18.11480 37052 ft 455 kts 151°
2026-05-06 18:30 40.80212 18.16153 37063 ft 455 kts 151°
2026-05-06 18:30 40.74928 18.20773 37054 ft 455 kts 152°
2026-05-06 18:31 40.69623 18.25340 37047 ft 455 kts 152°
2026-05-06 18:31 40.64316 18.29886 37052 ft 455 kts 152°
2026-05-06 18:32 40.59021 18.34446 37057 ft 455 kts 151°
2026-05-06 18:32 40.53718 18.39008 37067 ft 455 kts 152°
2026-05-06 18:33 40.48421 18.43548 37051 ft 455 kts 151°
2026-05-06 18:33 40.43158 18.48050 37048 ft 454 kts 151°
2026-05-06 18:34 40.37850 18.52571 37052 ft 456 kts 151°
2026-05-06 18:34 40.32533 18.57097 37067 ft 456 kts 151°
2026-05-06 18:35 40.27208 18.61620 37076 ft 456 kts 151°
2026-05-06 18:35 40.21879 18.66138 37072 ft 456 kts 150°
2026-05-06 18:36 40.16562 18.70637 37091 ft 455 kts 151°
2026-05-06 18:36 40.11253 18.75134 37086 ft 454 kts 150°
2026-05-06 18:37 40.05932 18.79630 37086 ft 454 kts 150°
2026-05-06 18:37 40.00621 18.84101 37072 ft 454 kts 150°
2026-05-06 18:38 39.95307 18.88568 37087 ft 454 kts 150°
2026-05-06 18:38 39.89995 18.93027 37091 ft 454 kts 150°
2026-05-06 18:39 39.84689 18.97477 37091 ft 454 kts 149°
2026-05-06 18:40 39.78112 19.06382 37090 ft 460 kts 127°
2026-05-06 18:40 39.74389 19.13068 37095 ft 460 kts 127°
2026-05-06 18:41 39.70622 19.19770 37090 ft 459 kts 127°
2026-05-06 18:41 39.66850 19.26463 37097 ft 459 kts 127°
2026-05-06 18:42 39.63091 19.33152 37096 ft 459 kts 127°
2026-05-06 18:42 39.59329 19.39846 37101 ft 459 kts 127°
2026-05-06 18:43 39.55559 19.46515 37104 ft 458 kts 127°
2026-05-06 18:43 39.51786 19.53185 37101 ft 459 kts 127°
2026-05-06 18:44 39.48017 19.59838 37103 ft 459 kts 127°
2026-05-06 18:44 39.44234 19.66494 37104 ft 459 kts 127°
2026-05-06 18:45 39.40472 19.73092 37121 ft 459 kts 127°
2026-05-06 18:45 39.36682 19.79739 37109 ft 458 kts 127°
2026-05-06 18:46 39.32901 19.86363 37116 ft 458 kts 127°
2026-05-06 18:46 39.29108 19.92974 37113 ft 458 kts 127°
2026-05-06 18:47 39.25315 19.99573 37114 ft 458 kts 127°
2026-05-06 18:47 39.21533 20.06153 37115 ft 458 kts 127°
2026-05-06 18:48 39.17737 20.12750 37127 ft 458 kts 127°
2026-05-06 18:48 39.13934 20.19332 37125 ft 457 kts 127°
2026-05-06 18:49 39.10134 20.25899 37117 ft 457 kts 127°
2026-05-06 18:49 39.06375 20.32469 37109 ft 456 kts 126°
2026-05-06 18:50 39.02611 20.39053 37118 ft 456 kts 126°
2026-05-06 18:50 38.98851 20.45616 37120 ft 456 kts 127°
2026-05-06 18:51 38.95069 20.52180 37126 ft 456 kts 127°
2026-05-06 18:51 38.91301 20.58710 37128 ft 455 kts 127°
2026-05-06 18:52 38.87445 20.65083 37128 ft 453 kts 135°
2026-05-06 18:52 38.82665 20.70298 37125 ft 452 kts 143°
2026-05-06 18:53 38.77745 20.75341 37122 ft 453 kts 142°
2026-05-06 18:53 38.72837 20.80391 37122 ft 453 kts 142°
2026-05-06 18:54 38.67921 20.85436 37128 ft 453 kts 142°
2026-05-06 18:54 38.62984 20.90478 36952 ft 460 kts 143°
2026-05-06 18:54 38.60478 20.93036 36686 ft 462 kts 142°
2026-05-06 18:55 38.57976 20.95627 36431 ft 462 kts 141°
2026-05-06 18:55 38.55540 20.98288 36170 ft 460 kts 140°
2026-05-06 18:55 38.53153 21.01005 35910 ft 459 kts 139°
2026-05-06 18:55 38.50796 21.03738 35658 ft 457 kts 138°
2026-05-06 18:56 38.48447 21.06467 35403 ft 455 kts 139°
2026-05-06 18:56 38.46112 21.09157 35148 ft 451 kts 139°
2026-05-06 18:56 38.43773 21.11815 34678 ft 449 kts 139°
2026-05-06 18:56 38.41435 21.14439 34216 ft 447 kts 140°
2026-05-06 18:57 38.39100 21.17041 33696 ft 445 kts 140°
2026-05-06 18:57 38.36777 21.19628 33230 ft 442 kts 140°
2026-05-06 18:57 38.34474 21.22198 32761 ft 439 kts 140°
2026-05-06 18:57 38.32188 21.24753 32298 ft 436 kts 140°
2026-05-06 18:58 38.29918 21.27295 31829 ft 433 kts 140°
2026-05-06 18:58 38.27692 21.29785 31397 ft 430 kts 140°
2026-05-06 18:58 38.25449 21.32293 30950 ft 428 kts 140°
2026-05-06 18:58 38.23215 21.34788 30513 ft 425 kts 140°
2026-05-06 18:59 38.20996 21.37265 30080 ft 424 kts 140°
2026-05-06 18:59 38.18788 21.39725 29642 ft 420 kts 140°
2026-05-06 18:59 38.16597 21.42163 29236 ft 417 kts 140°
2026-05-06 18:59 38.14434 21.44609 28817 ft 415 kts 138°
2026-05-06 19:00 38.12334 21.47107 28398 ft 412 kts 137°
2026-05-06 19:00 38.10281 21.49638 27973 ft 411 kts 136°
2026-05-06 19:00 38.08248 21.52179 27538 ft 410 kts 136°
2026-05-06 19:00 38.06906 21.53857 27252 ft 409 kts 136°
2026-05-06 19:01 38.04188 21.57231 26664 ft 408 kts 136°
2026-05-06 19:01 38.02150 21.59733 26223 ft 407 kts 136°
2026-05-06 19:01 38.00102 21.62227 25755 ft 408 kts 137°
2026-05-06 19:01 37.98052 21.64709 25282 ft 408 kts 137°
2026-05-06 19:02 37.95997 21.67190 24803 ft 408 kts 137°
2026-05-06 19:02 37.93947 21.69665 24439 ft 405 kts 137°
2026-05-06 19:02 37.91931 21.72107 23970 ft 405 kts 137°
2026-05-06 19:02 37.89914 21.74553 23648 ft 400 kts 137°
2026-05-06 19:03 37.87886 21.77009 23157 ft 398 kts 137°
2026-05-06 19:03 37.85893 21.79425 22708 ft 395 kts 137°
2026-05-06 19:03 37.83945 21.81786 22276 ft 391 kts 137°
2026-05-06 19:03 37.81987 21.84155 21811 ft 388 kts 137°
2026-05-06 19:04 37.80043 21.86503 21356 ft 385 kts 137°
2026-05-06 19:04 37.78111 21.88830 20893 ft 382 kts 137°
2026-05-06 19:04 37.76194 21.91137 20422 ft 379 kts 137°
2026-05-06 19:04 37.74285 21.93433 19980 ft 377 kts 137°
2026-05-06 19:05 37.72387 21.95712 19543 ft 374 kts 137°
2026-05-06 19:05 37.70504 21.97976 19121 ft 372 kts 136°
2026-05-06 19:05 37.68636 22.00224 18681 ft 369 kts 137°
2026-05-06 19:05 37.66782 22.02452 18234 ft 367 kts 137°
2026-05-06 19:06 37.64939 22.04660 17768 ft 364 kts 137°
2026-05-06 19:06 37.63108 22.06852 17317 ft 361 kts 137°
2026-05-06 19:06 37.61289 22.09032 16859 ft 359 kts 137°
2026-05-06 19:06 37.59486 22.11191 16421 ft 356 kts 137°
2026-05-06 19:07 37.57693 22.13334 15993 ft 354 kts 137°
2026-05-06 19:07 37.56514 22.14741 15694 ft 351 kts 137°
2026-05-06 19:07 37.54165 22.17540 14663 ft 345 kts 137°
2026-05-06 19:07 37.52457 22.19578 14055 ft 338 kts 137°
2026-05-06 19:08 37.50787 22.21572 13602 ft 324 kts 137°
2026-05-06 19:08 37.49003 22.23227 13114 ft 316 kts 155°
2026-05-06 19:08 37.46902 22.23961 12707 ft 313 kts 178°
2026-05-06 19:08 37.44767 22.23668 12309 ft 308 kts 200°
2026-05-06 19:09 37.42891 22.22432 11929 ft 303 kts 221°
2026-05-06 19:09 37.41519 22.20469 11552 ft 297 kts 242°
2026-05-06 19:09 37.40792 22.18081 11182 ft 292 kts 262°
2026-05-06 19:09 37.40655 22.15522 10576 ft 295 kts 273°
2026-05-06 19:10 37.40682 22.13031 10451 ft 276 kts 273°
2026-05-06 19:10 37.40706 22.10641 10278 ft 269 kts 272°
2026-05-06 19:10 37.40726 22.08335 10149 ft 255 kts 272°
2026-05-06 19:10 37.40739 22.06190 10031 ft 236 kts 272°
2026-05-06 19:11 37.40751 22.04190 9791 ft 224 kts 273°
2026-05-06 19:11 37.40766 22.02249 9340 ft 221 kts 272°
2026-05-06 19:11 37.40780 22.00322 8840 ft 220 kts 272°
2026-05-06 19:11 37.40787 21.98398 8336 ft 219 kts 268°
2026-05-06 19:12 37.40322 21.96603 7864 ft 218 kts 233°
2026-05-06 19:12 37.39119 21.95497 7366 ft 220 kts 195°
2026-05-06 19:12 37.37594 21.95447 7032 ft 223 kts 166°
2026-05-06 19:12 37.36611 21.95817 6841 ft 223 kts 166°
2026-05-06 19:13 37.34561 21.96279 6185 ft 235 kts 172°
2026-05-06 19:13 37.32954 21.96587 5727 ft 231 kts 171°
2026-05-06 19:13 37.31399 21.96925 5367 ft 222 kts 170°
2026-05-06 19:13 37.29907 21.97255 5028 ft 214 kts 171°
2026-05-06 19:14 37.28474 21.97562 4738 ft 203 kts 171°
2026-05-06 19:14 37.27115 21.97862 4401 ft 194 kts 170°
2026-05-06 19:14 37.26248 21.98055 4195 ft 188 kts 170°
2026-05-06 19:14 37.24574 21.98427 3824 ft 178 kts 170°
2026-05-06 19:15 37.23775 21.98602 3641 ft 173 kts 170°
2026-05-06 19:15 37.22611 21.98858 3381 ft 168 kts 170°
2026-05-06 19:15 37.21473 21.99108 3121 ft 164 kts 170°
2026-05-06 19:15 37.20373 21.99357 2871 ft 156 kts 170°
2026-05-06 19:16 37.19330 21.99591 2641 ft 150 kts 171°
2026-05-06 19:16 37.18309 21.99806 2416 ft 148 kts 171°
2026-05-06 19:16 37.17297 22.00028 2183 ft 147 kts 170°
2026-05-06 19:16 37.16299 22.00253 1956 ft 146 kts 170°
2026-05-06 19:17 37.15293 22.00475 1724 ft 147 kts 171°
2026-05-06 19:17 37.14296 22.00717 1514 ft 144 kts 167°
2026-05-06 19:17 37.13339 22.01021 1301 ft 141 kts 167°
2026-05-06 19:17 37.12382 22.01258 1052 ft 139 kts 171°
2026-05-06 19:18 37.11428 22.01448 810 ft 139 kts 170°
2026-05-06 19:18 37.10476 22.01688 534 ft 139 kts 171°
2026-05-06 19:18 37.09511 22.01907 312 ft 142 kts 168°
2026-05-06 19:18 37.08533 22.02146 196 ft 144 kts 169°
2026-05-06 19:19 37.07570 22.02368 36 ft 136 kts 171°
2026-05-06 19:19 37.06785 22.02551 33 ft 90 kts 169°
2026-05-06 19:19 37.06295 22.02665 31 ft 64 kts 169°
2026-05-06 19:19 37.05860 22.02765 31 ft 64 kts 169°
2026-05-06 19:20 37.05661 22.02815 31 ft 12 kts 168°
2026-05-06 19:20 37.05578 22.02835 34 ft 12 kts 169°
2026-05-06 19:20 37.05527 22.02905 34 ft 14 kts 83°
2026-05-06 19:20 37.05543 22.03024 35 ft 11 kts 96°
2026-05-06 19:21 37.05535 22.03062 35 ft 1 kts 106°
2026-05-06 19:21 37.05530 22.03082 35 ft 4 kts 105°
2026-05-06 19:21 37.05520 22.03127 35 ft 7 kts 105°
2026-05-06 19:21 37.05505 22.03196 35 ft 9 kts 105°
2026-05-06 19:22 37.05483 22.03238 33 ft 7 kts 109°
2026-05-06 19:22 37.05488 22.03288 35 ft 6 kts 78°
2026-05-06 19:22 37.05508 22.03310 35 ft 3 kts
2026-05-06 19:22 37.05525 22.03313 35 ft 3 kts
2026-05-06 19:23 37.05536 22.03322 35 ft 1 kts 72°
2026-05-06 19:23 37.05533 22.03335 35 ft 0 kts 111°